User: anonymous   Login
Location: ????
(30.1475°N, 31.1342°E)
Time: 23:57:59
(UTC+00:00)
Language:

Meteor 1-11 Rocket - Orbit

View from above orbital plane
View from above orbital plane
View from above satellite
View from above satellite

Ground track
Ground track

The orbit data is extracted from the following two-line orbital elements,

1 05918U 72022B   23027.33279926  .00000168  00000-0  94165-4 0  9995
2 05918  81.2388 142.5577 0058060 326.6941  33.0578 14.05947777605790
Epoch (UTC): 27 January 2023 07:59:13
Eccentricity: 0.0058060
inclination: 81.2388°
perigee height: 831 km
apogee height: 915 km
right ascension of ascending node: 142.5577°
argument of perigee: 326.6941°
revolutions per day: 14.05947777
mean anomaly at epoch: 33.0578°
orbit number at epoch: 60579

The dashed part of the orbit path shows where the satellite is in the earth's shadow,  

DLR